Location: Unspecified
(43.4354°N, 0.0000°E)
Time: 02:30:29
(UTC+00:00)

A-11 Canister half - Pass Details

Date: 21 June 2019
Orbit: 1514 x 1686 km, 47.2° (Epoch: 13 October)

Event Time Altitude Azimuth Distance (km) Brightness Sun altitude
Rises 07:46:25 0° 167° (SSE) 4,916 11.8 34.6°
Reaches altitude 10° 07:52:56 10° 137° (SE) 3,909 11.8 35.7°
Maximum altitude 07:55:37 11° 121° (ESE) 3,790 12.1 36.2°
Drops below altitude 10° 07:58:16 10° 105° (ESE) 3,885 12.4 36.7°
Sets 08:04:36 0° 76° (ENE) 4,834 12.5 37.9°
